CAPE
0 0 0 0 0 0 0 0 0 0 0 0 0 0 0 0 0 0 0 0 0 0 0 0 0 10 518 1369 1949 2211 1947 1772 1463 1125 888 656 688 414 273 161 74 84 169 344
0 0 0 0 0 0 0 0 0 0 0 0 0 0 0 0 0 0 0 0 0 0 0 0 0 5 835 1484 1942 2125 1805 1610 1334 1041 717 494 460 575 421 290 187 48 61 186
0 6 0 0 0 0 0 0 0 4 15 1 0 0 0 0 0 0 0 0 0 0 0 0 0 15 982 1390 1970 2029 1751 1448 1184 937 658 432 174 295 210 298 372 143 269 242
2 0 0 0 0 0 0 7 11 12 3 0 36 0 1 0 0 0 0 0 0 0 0 0 0 37 890 1318 1787 1955 1747 1430 1183 946 611 454 346 107 312 223 251 200 146 255
0 0 0 0 0 3 11 27 22 18 0 0 0 0 0 11 0 0 0 0 0 0 0 0 0 0 661 1254 1739 1890 1693 1464 1181 1030 848 534 298 285 274 130 149 48 30 0
0 0 0 0 4 7 7 13 18 5 0 0 2 7 0 47 15 3 9 8 2 0 0 0 0 0 407 1095 1856 1790 1688 1463 1239 1187 791 471 300 266 325 158 126 17 12 2
53 33 9 0 0 3 10 15 0 0 0 0 43 18 29 28 13 6 13 17 47 39 37 9 0 20 178 974 1644 1725 1641 1198 1256 1047 700 383 287 323 95 210 107 30 24 5
15 5 12 2 0 15 5 0 0 0 0 0 1 0 142 81 20 32 68 75 51 140 677 408 66 110 460 984 1508 1579 1519 990 1123 1016 679 347 280 270 292 237 93 47 12 47
37 42 9 22 8 1 41 6 7 0 0 0 0 0 174 92 35 45 58 56 15 9 25 623 205 556 723 1219 1289 1166 1171 672 793 846 595 261 236 132 102 90 121 182 116 44
4 51 58 80 34 28 20 73 55 48 0 0 12 25 164 32 23 16 7 8 0 0 3 282 430 721 886 1182 845 813 757 784 523 623 424 156 172 65 108 100 37 10 17 28
241 79 30 72 104 103 117 106 78 87 103 0 0 146 30 0 0 0 0 0 0 0 214 310 551 789 867 794 497 810 725 672 550 178 137 226 166 80 66 56 33 16 44 42
110 332 68 42 71 106 61 104 61 74 2 88 119 41 10 0 0 2 0 0 0 25 227 356 364 666 500 446 272 686 366 259 314 209 90 29 9 11 27 22 24 29 28 26
6 87 130 91 95 81 47 52 119 89 53 0 45 79 6 0 0 0 26 0 0 29 230 306 286 255 157 52 134 325 248 114 211 156 93 23 13 36 17 7 8 8 8 3
25 0 62 112 31 89 115 91 131 145 105 54 88 30 50 71 20 0 0 0 24 62 440 271 285 190 50 17 121 267 257 137 163 126 113 19 5 14 19 8 35 31 20 5
126 19 2 37 48 52 2 14 107 115 56 0 0 0 0 49 70 7 0 0 44 130 184 238 147 90 42 14 64 227 294 189 131 161 82 7 0 4 2 6 6 3 12 4
110 16 2 0 148 70 0 44 3 0 0 0 8 3 41 97 94 0 0 0 0 70 154 124 216 120 76 66 120 241 278 244 167 141 66 45 25 4 7 8 9 5 3 16
46 64 6 1 188 57 2 7 8 0 11 18 55 66 89 15 33 0 0 0 1 0 16 167 254 119 117 139 137 247 261 289 206 128 163 230 185 95 79 32 32 25 11 11
102 42 0 26 174 97 3 0 14 5 40 49 44 52 14 0 1 1 1 0 0 0 0 11 145 139 211 183 184 304 265 323 273 152 413 146 115 71 50 40 94 308 227 109
33 0 0 4 113 4 3 24 58 40 53 14 16 14 5 1 2 0 0 0 0 0 0 0 0 0 6 120 68 107 150 121 199 140 36 21 7 2 0 0 0 2 42 75
34 65 0 0 9 18 135 62 15 3 69 0 8 6 5 1 0 0 0 5 0 0 0 0 0 0 0 0 15 35 20 40 4 113 0 0 5 4 1 0 0 0 0 0
67 45 26 107 84 144 67 17 6 0 37 0 0 0 0 0 5 7 0 0 0 0 0 0 0 0 0 0 13 0 10 0 0 0 0 0 0 11 0 0 0 0 0 0
62 67 109 110 99 95 3 67 99 0 7 0 0 0 0 0 0 4 0 3 0 0 0 0 0 0 0 0 0 0 0 0 0 0 0 0 0 0 0 0 0 0 0 0
121 75 181 85 155 0 0 0 0 0 0 0 0 0 0 0 0 0 0 0 0 0 0 0 0 0 0 0 0 0 0 0 0 0 0 0 0 0 0 0 0 0 0 0
106 13 88 171 0 0 0 0 0 0 0 0 0 0 0 0 0 0 0 0 0 0 0 0 0 0 0 0 0 0 0 0 0 0 0 0 0 0 0 0 0 0 0 0
0 33 0 0 0 0 0 0 0 0 0 0 0 0 2 0 0 0 0 0 0 0 0 0 0 0 0 0 0 0 0 0 0 0 0 0 0 0 0 0 0 0 0 0
0 0 0 9 0 0 0 0 0 0 0 0 0 0 0 0 0 0 0 0 0 0 0 0 0 0 0 0 0 0 0 0 0 0 0 0 0 0 0 0 0 0 0 0
CIN
0 0 0 0 0 -0 0 0 0 0 0 0 0 0 0 0 0 0 0 0 0 0 0 0 0 -4 -20 -8 -42 -48 -83 -84 -101 -140 -165 -169 -76 -53 -46 -43 -76 -44 -1 0
0 0 0 0 0 0 0 0 0 0 0 0 0 0 0 0 0 0 0 0 0 0 0 0 0 -7 -37 -37 -46 -54 -90 -102 -132 -127 -171 -185 -102 -33 -13 -22 -20 -66 -48 -13
0 -0 0 0 0 0 0 0 0 -24 -43 -66 0 0 0 0 0 0 0 0 0 0 0 0 0 -20 -43 -47 -60 -51 -90 -131 -155 -132 -170 -169 -149 -69 -55 -19 -3 -11 -0 0
0 0 0 0 -19 0 0 -32 -27 -62 -13 0 -1 0 -1 0 0 0 0 0 0 0 0 0 0 -25 -43 -52 -59 -36 -80 -131 -133 -136 -188 -158 -122 -131 -35 -36 -13 -2 -0 -0
0 0 0 0 0 -15 -24 -4 -39 -52 0 0 0 0 0 -6 0 0 0 0 0 0 0 0 0 0 -20 -54 -58 -42 -72 -104 -113 -119 -118 -122 -111 -84 -56 -73 -42 -47 -6 0
0 -0 0 0 -15 -51 -55 -50 -49 -39 0 0 -7 -2 0 -0 -1 -1 -0 -1 -0 0 0 0 0 0 -3 -39 -28 -61 -77 -94 -92 -81 -119 -120 -112 -110 -63 -83 -66 -0 -66 -23
-0 0 0 0 0 -43 -42 -4 0 0 0 0 -0 -0 0 -2 -7 -0 -0 -0 -41 -5 -48 -17 0 -9 -8 -26 -49 -71 -70 -132 -83 -100 -136 -142 -119 -104 -148 -79 -94 -63 -72 -35
0 0 -2 -0 0 -2 -21 0 0 0 0 0 -3 0 0 -20 -13 -0 0 -0 -10 -9 -2 -1 -1 -2 -20 -25 -43 -74 -79 -158 -98 -104 -136 -148 -129 -120 -90 -62 -116 -110 -155 -8
0 0 -5 -15 -14 -4 -0 0 -20 0 0 0 0 0 -3 -1 -2 0 0 -0 0 0 -41 -3 -1 -25 -34 -24 -85 -119 -94 -214 -147 -100 -115 -153 -139 -176 -167 -130 -82 -53 -54 -22
0 0 -1 0 -9 -3 -5 -1 -1 0 0 0 -1 -3 -0 -16 -14 -12 0 0 0 0 -16 -94 -9 -4 -20 -45 -141 -129 -138 -172 -166 -104 -118 -177 -163 -207 -162 -136 -137 -5 -59 0
0 -1 0 -0 0 0 0 0 -0 -1 0 0 0 -1 -31 0 0 0 0 0 0 0 -58 -45 -14 -1 -28 -123 -179 -112 -131 -136 -118 -99 -143 -127 -140 -175 -180 -177 -4 -2 -1 -0
0 0 -2 -0 -0 -0 -1 -1 -1 -1 0 -0 0 -2 -22 0 0 -1 0 0 0 -43 -36 -31 -48 -42 -85 -140 -204 -111 -142 -181 -124 -139 -92 -140 -36 -0 0 0 0 0 0 0
-3 -0 0 0 -0 -1 0 -0 -0 -1 -3 0 0 -1 -3 0 0 -0 -0 -0 -0 -24 -18 -36 -61 -88 -147 -243 -191 -124 -131 -154 -120 -120 -109 -125 -196 -158 -0 -2 -2 -3 -1 0
-3 0 0 0 -8 -1 -0 0 -1 0 0 -0 0 -0 -27 -4 -3 0 -1 0 -2 -7 0 -24 -37 -82 -146 -209 -143 -123 -135 -155 -123 -123 -106 -35 0 0 -0 0 -1 -2 -0 0
-0 -1 -0 0 0 -1 -1 -2 -0 0 0 0 -2 -0 0 -1 0 0 0 -0 -1 0 -0 -8 -38 -87 -108 -133 -113 -90 -68 -86 -106 -105 -100 -29 0 0 0 -0 -1 0 -0 0
0 0 -1 0 0 0 -3 -28 -0 0 0 0 0 0 -2 -3 0 0 0 0 0 -2 -1 -1 -4 -44 -65 -62 -59 -56 -53 -39 -51 -68 -69 -101 -112 -2 0 0 0 0 0 0
0 0 -2 -0 0 -0 -10 -3 0 -1 -0 -0 -0 0 -0 -1 -1 0 0 0 -1 0 -12 -8 0 -17 -31 -27 -29 -20 -27 -18 -7 -7 -18 -5 -5 -31 -17 -13 -19 -31 -33 -4
0 0 0 -3 0 0 -1 -0 -2 -1 0 -0 -1 -0 0 0 -0 -0 -0 0 0 0 0 -4 -0 -0 -1 -2 -0 0 -0 0 0 0 0 0 -1 -0 -6 -2 -0 0 0 -0
-0 -2 0 -3 -0 -4 -3 -2 -0 -0 -1 -0 0 0 -2 0 0 0 0 0 0 0 0 0 0 0 -11 0 -5 0 0 -11 -0 -0 -12 -0 -12 -1 -1 0 0 -2 -1 -0
-1 -0 0 0 -4 -2 -0 -4 -27 -23 0 0 0 0 0 0 0 0 -0 -0 0 0 0 0 0 0 0 0 0 -2 -16 -14 -41 -2 0 0 0 0 -4 0 0 0 0 0
0 0 0 -0 -0 0 -8 -25 -39 0 0 0 0 0 0 0 -0 -0 0 0 0 0 0 0 0 0 0 0 0 0 -1 -2 0 0 0 0 0 0 0 0 0 0 0 0
-0 -0 0 -0 -0 -0 0 -8 -3 -0 0 0 0 0 0 0 0 -1 0 -0 0 0 0 0 0 0 0 0 0 0 0 0 0 0 0 0 -3 0 0 0 0 0 0 0
-1 -2 0 -2 -0 0 0 0 0 0 0 0 0 0 0 0 0 0 0 -0 0 0 0 0 0 0 0 0 0 0 -0 -1 0 0 0 0 0 0 0 0 0 0 0 0
0 -9 0 0 0 0 0 0 0 0 0 0 0 0 -0 0 0 0 0 0 0 0 0 0 0 0 0 0 0 0 0 0 0 0 0 0 0 0 0 0 0 0 0 0
0 -1 0 0 0 0 0 0 0 0 0 0 0 0 -1 0 0 0 0 0 0 0 0 0 0 0 0 0 0 0 0 0 0 0 0 0 0 0 0 0 0 0 0 0
0 0 0 0 0 0 0 0 0 0 0 0 0 0 0 0 0 0 0 0 0 0 0 0 0 0 0 0 0 0 0 0 0 0 0 0 0 0 0 0 0 0 0 0
Wind_Speed
nan nan nan nan nan nan nan nan nan nan nan nan nan nan nan nan nan nan nan nan nan nan nan nan nan nan 29 31 30 28 28 30 31 29 30 29 21 17 19 21 nan nan 29 26
nan nan nan nan nan nan nan nan nan nan nan nan nan nan nan nan nan nan nan nan nan nan nan nan nan nan 24 27 28 27 27 30 30 27 26 25 19 14 17 19 22 nan nan 23
nan nan nan nan nan nan nan nan nan nan nan nan nan nan nan nan nan nan nan nan nan nan nan nan nan nan 22 22 23 24 26 31 27 25 26 21 18 13 16 17 22 22 21 17
nan nan nan nan nan nan nan nan nan nan nan nan nan nan nan nan nan nan nan nan nan nan nan nan nan nan 18 17 20 22 27 30 25 26 27 19 15 14 11 16 19 17 18 14
nan nan nan nan nan nan nan nan nan nan nan nan nan nan nan nan nan nan nan nan nan nan nan nan nan nan 16 20 20 21 27 27 26 24 24 16 12 12 11 16 20 nan nan nan
nan nan nan nan nan nan nan nan nan nan nan nan nan nan nan nan nan nan nan nan nan nan nan nan nan nan 22 21 22 23 27 25 23 23 22 14 14 10 11 14 15 nan nan nan
nan nan nan nan nan nan nan nan nan nan nan nan nan nan nan nan nan nan nan nan nan nan nan nan nan nan 21 21 24 24 24 21 22 25 21 15 13 10 nan 9 10 nan nan nan
nan nan nan nan nan nan nan nan nan nan nan nan nan nan 20 nan nan nan nan nan nan 44 47 30 nan 20 19 21 21 21 23 18 20 26 21 17 10 9 8 7 nan nan nan nan
nan nan nan nan nan nan nan nan nan nan nan nan nan nan 30 nan nan nan nan nan nan nan nan 35 31 24 22 25 27 24 18 22 19 23 20 19 14 12 12 nan 10 9 12 nan
nan nan nan nan nan nan nan nan nan nan nan nan nan nan 32 nan nan nan nan nan nan nan nan 46 35 28 28 38 29 26 25 24 21 19 18 19 17 nan 15 13 nan nan nan nan
18 nan nan nan 27 10 21 15 nan nan 13 nan nan 23 nan nan nan nan nan nan nan nan 47 49 52 42 47 35 32 28 27 24 23 17 19 17 19 nan nan nan nan nan nan nan
41 32 nan nan nan 9 nan 14 nan nan nan nan 18 nan nan nan nan nan nan nan nan nan 47 48 49 50 41 41 37 36 30 31 23 20 nan nan nan nan nan nan nan nan nan nan
nan nan 24 nan nan nan nan nan 17 nan nan nan nan nan nan nan nan nan nan nan nan nan 49 51 51 52 51 nan 53 50 43 33 27 25 nan nan nan nan nan nan nan nan nan nan
nan nan nan 23 nan nan 19 nan 20 19 23 nan nan nan nan nan nan nan nan nan nan nan 50 52 52 54 nan nan 55 54 55 44 37 31 34 nan nan nan nan nan nan nan nan nan
35 nan nan nan nan nan nan nan 12 13 nan nan nan nan nan nan nan nan nan nan nan 47 52 52 53 nan nan nan nan 56 56 51 47 44 nan nan nan nan nan nan nan nan nan nan
36 nan nan nan 20 nan nan nan nan nan nan nan nan nan nan nan nan nan nan nan nan nan 49 51 53 52 nan nan 47 59 58 55 52 50 nan nan nan nan nan nan nan nan nan nan
nan nan nan nan 12 nan nan nan nan nan nan nan nan nan nan nan nan nan nan nan nan nan nan 50 50 53 53 50 55 61 58 56 54 52 53 49 46 nan nan nan nan nan nan nan
26 nan nan nan 24 nan nan nan nan nan nan nan nan nan nan nan nan nan nan nan nan nan nan nan 47 51 52 50 53 58 61 62 58 56 55 52 51 nan nan nan nan 51 48 48
nan nan nan nan 18 nan nan nan nan nan nan nan nan nan nan nan nan nan nan nan nan nan nan nan nan nan nan 53 nan 47 61 64 64 59 nan nan nan nan nan nan nan nan nan nan
nan nan nan nan nan nan 25 nan nan nan nan nan nan nan nan nan nan nan nan nan nan nan nan nan nan nan nan nan nan nan nan nan nan 62 nan nan nan nan nan nan nan nan nan nan
nan nan nan 19 nan 31 nan nan nan nan nan nan nan nan nan nan nan nan nan nan nan nan nan nan nan nan nan nan nan nan nan nan nan nan nan nan nan nan nan nan nan nan nan nan
nan nan 7 9 nan nan nan nan nan nan nan nan nan nan nan nan nan nan nan nan nan nan nan nan nan nan nan nan nan nan nan nan nan nan nan nan nan nan nan nan nan nan nan nan
22 nan 16 nan 20 nan nan nan nan nan nan nan nan nan nan nan nan nan nan nan nan nan nan nan nan nan nan nan nan nan nan nan nan nan nan nan nan nan nan nan nan nan nan nan
25 nan nan 13 nan nan nan nan nan nan nan nan nan nan nan nan nan nan nan nan nan nan nan nan nan nan nan nan nan nan nan nan nan nan nan nan nan nan nan nan nan nan nan nan
nan nan nan nan nan nan nan nan nan nan nan nan nan nan nan nan nan nan nan nan nan nan nan nan nan nan nan nan nan nan nan nan nan nan nan nan nan nan nan nan nan nan nan nan
nan nan nan nan nan nan nan nan nan nan nan nan nan nan nan nan nan nan nan nan nan nan nan nan nan nan nan nan nan nan nan nan nan nan nan nan nan nan nan nan nan nan nan nan
Wind_Direction
nan nan nan nan nan nan nan nan nan nan nan nan nan nan nan nan nan nan nan nan nan nan nan nan nan nan 274 271 276 287 290 298 297 292 290 291 282 278 271 274 nan nan 280 274
nan nan nan nan nan nan nan nan nan nan nan nan nan nan nan nan nan nan nan nan nan nan nan nan nan nan 268 271 279 289 290 296 296 287 292 285 272 273 280 284 292 nan nan 279
nan nan nan nan nan nan nan nan nan nan nan nan nan nan nan nan nan nan nan nan nan nan nan nan nan nan 261 273 286 287 289 294 295 294 295 276 267 272 281 296 295 286 284 267
nan nan nan nan nan nan nan nan nan nan nan nan nan nan nan nan nan nan nan nan nan nan nan nan nan nan 271 273 273 280 282 292 295 303 295 288 281 287 295 296 309 298 280 253
nan nan nan nan nan nan nan nan nan nan nan nan nan nan nan nan nan nan nan nan nan nan nan nan nan nan 279 262 263 267 277 292 297 311 293 282 304 291 292 292 301 nan nan nan
nan nan nan nan nan nan nan nan nan nan nan nan nan nan nan nan nan nan nan nan nan nan nan nan nan nan 267 244 252 259 277 289 302 305 288 289 290 300 293 295 299 nan nan nan
nan nan nan nan nan nan nan nan nan nan nan nan nan nan nan nan nan nan nan nan nan nan nan nan nan nan 238 246 260 255 273 290 298 297 284 283 284 305 nan 310 307 nan nan nan
nan nan nan nan nan nan nan nan nan nan nan nan nan nan 261 nan nan nan nan nan nan 202 199 205 nan 214 222 249 263 263 271 282 293 292 284 279 291 271 260 260 nan nan nan nan
nan nan nan nan nan nan nan nan nan nan nan nan nan nan 288 nan nan nan nan nan nan nan nan 189 191 207 230 241 248 242 262 265 285 293 282 272 257 265 262 nan 269 287 320 nan
nan nan nan nan nan nan nan nan nan nan nan nan nan nan 237 nan nan nan nan nan nan nan nan 185 186 213 228 238 246 228 235 257 274 285 269 261 267 nan 262 258 nan nan nan nan
231 nan nan nan 292 294 281 272 nan nan 244 nan nan 241 nan nan nan nan nan nan nan nan 200 192 189 204 228 231 238 231 242 256 258 260 265 265 253 nan nan nan nan nan nan nan
228 237 nan nan nan 296 nan 270 nan nan nan nan 234 nan nan nan nan nan nan nan nan nan 204 200 200 204 221 226 228 232 238 246 247 254 nan nan nan nan nan nan nan nan nan nan
nan nan 229 nan nan nan nan nan 247 nan nan nan nan nan nan nan nan nan nan nan nan nan 213 206 205 206 211 nan 232 220 230 242 242 246 nan nan nan nan nan nan nan nan nan nan
nan nan nan 195 nan nan 224 nan 257 253 242 nan nan nan nan nan nan nan nan nan nan nan 220 210 208 207 nan nan 229 215 224 225 235 235 241 nan nan nan nan nan nan nan nan nan
217 nan nan nan nan nan nan nan 270 250 nan nan nan nan nan nan nan nan nan nan nan 222 221 212 211 nan nan nan nan 216 223 225 230 237 nan nan nan nan nan nan nan nan nan nan
223 nan nan nan 185 nan nan nan nan nan nan nan nan nan nan nan nan nan nan nan nan nan 220 218 214 216 nan nan 226 217 222 227 232 236 nan nan nan nan nan nan nan nan nan nan
nan nan nan nan 253 nan nan nan nan nan nan nan nan nan nan nan nan nan nan nan nan nan nan 221 215 219 225 229 215 217 220 227 232 236 239 242 245 nan nan nan nan nan nan nan
180 nan nan nan 245 nan nan nan nan nan nan nan nan nan nan nan nan nan nan nan nan nan nan nan 224 223 223 227 214 227 225 227 229 236 242 243 248 nan nan nan nan 246 243 239
nan nan nan nan 212 nan nan nan nan nan nan nan nan nan nan nan nan nan nan nan nan nan nan nan nan nan nan 226 nan 231 229 235 234 234 nan nan nan nan nan nan nan nan nan nan
nan nan nan nan nan nan 241 nan nan nan nan nan nan nan nan nan nan nan nan nan nan nan nan nan nan nan nan nan nan nan nan nan nan 233 nan nan nan nan nan nan nan nan nan nan
nan nan nan 151 nan 223 nan nan nan nan nan nan nan nan nan nan nan nan nan nan nan nan nan nan nan nan nan nan nan nan nan nan nan nan nan nan nan nan nan nan nan nan nan nan
nan nan 229 195 nan nan nan nan nan nan nan nan nan nan nan nan nan nan nan nan nan nan nan nan nan nan nan nan nan nan nan nan nan nan nan nan nan nan nan nan nan nan nan nan
210 nan 193 nan 225 nan nan nan nan nan nan nan nan nan nan nan nan nan nan nan nan nan nan nan nan nan nan nan nan nan nan nan nan nan nan nan nan nan nan nan nan nan nan nan
225 nan nan 208 nan nan nan nan nan nan nan nan nan nan nan nan nan nan nan nan nan nan nan nan nan nan nan nan nan nan nan nan nan nan nan nan nan nan nan nan nan nan nan nan
nan nan nan nan nan nan nan nan nan nan nan nan nan nan nan nan nan nan nan nan nan nan nan nan nan nan nan nan nan nan nan nan nan nan nan nan nan nan nan nan nan nan nan nan
nan nan nan nan nan nan nan nan nan nan nan nan nan nan nan nan nan nan nan nan nan nan nan nan nan nan nan nan nan nan nan nan nan nan nan nan nan nan nan nan nan nan nan nan